OBJECT B, 57425

Orbit data source: Space-Track

You're viewing an Uncataloged Satellite

Recently launched and/or uncataloged satellites may have evolving metadata. Metadata may include but not limited to: Owner, Maufacturer, Bus, Motor, and Mission.

OBJECT B, 57425 is a Chinese satellite in SSO that was launched on Sun, 23 Jul 2023 UTC via a CHANG ZHENG 2D launch vehicle from the Taiyaun Space Center, China (TSC). Unknown objects in Earth's orbit typically refer to objects detected orbiting the Earth but have not yet been identified or cataloged. These objects could be anything from previously untracked satellites, spent rocket stages, debris from satellite collisions, or even natural meteoroids temporarily captured by Earth's gravity.

Loading next visibility...
Identifier
57425, 2023-104B
Orbit
SSO
Country
Flag of CNCN / PRC
Related business
None
Manufacturer
Unknown
Mission
Operational Commercial Imaging
Bus & Motor
Unknown
Mass
Unknown
Launch date (UTC)
2023-07-23 (2 years ago)
Launch vehicle
CHANG ZHENG 2D
Launch site
Taiyaun Space Center, China (TSC)
Object type
Unknown
Shape & HBR
Box + 2 Pan, 0.8 m
Radar Cross Section
0.363 m², Medium (>0.1 m² and < 1m²)

Expand to show TLE details & history
Last TLE update: 8 hours ago

TLE from 8 hours ago
0 OBJECT B
1 57425U 23104B   25307.94592524  .00065339  00000-0  71049-3 0  9990
2 57425  97.2925  25.4786 0005762 169.8998 190.2377 15.63237718128273
Epoch: 2025-11-03T22:42Z
TLE epoch observation values (Epoch: 2025-11-03T22:42:07.940Z)
Latitude
-0.0001°
Longitude
1.50552°
Altitude
385.296 km
Speed
7.677 km/s
True Right ascension
01h 41m 54s
True Declination
0° 00' 00"
Sunlit
Object was in full shadow at epoch
Visualization orbit readout
Latitude
Unknown
Longitude
Unknown
Altitude
Unknown
Speed
Unknown
Apparent Right ascension
Unknown
Apparent Declination
Unknown
Sunlit
N/A
Visualization observer readout
Local Sidereal Time
03:03:28
Azimuth
Unknown
Elevation
Unknown
Doppler factor
Unknown
Orbital elements
Apogee altitude
379.107 km
Perigee altitude
371.324 km
Semi-major axis
6,753.352 km
Eccentricity
0.00058
Inclination
97.2925°
RAAN
25.4786°
Arg. of periapsis
169.8998°
True anomaly
190.22597°
Mean anomaly
190.2377°
Eccentric anomaly
190.23184°
Mean motion
3.91079 °/min
Orbital period
92.05 mins
BSTAR
0.00071049
Loading maneuver chart data...
Computing Atmospheric mass density...
Loading historical data...
Loading historical data...
Loading historical data...
Loading historical data...
Loading historical data...
Loading historical data...
Loading historical data...
Other satellites on launch #104 in the year 2023 (2023-07-23 UTC)

Documentation

Showing up to 5 results
|